アラン彗星

50P/Arend (2007)

English version
Home page
Updated on March 22, 2009

---------------------------------------------------------------------

・ プロフィール

・ 写真集

・ 軌道要素

The following orbital elements are taken from MPC 60466:

Epoch 2007 Oct. 27.0 TT = JDT 2454400.5
T 2007 Nov. 1.1859 TT                                   MPC
q   1.924347             (2000.0)            P               Q
n   0.1192532      Peri.   49.0424      +0.7113408      -0.7023406
a   4.087797       Node   355.3357      +0.5048741      +0.5370184
e   0.529246       Incl.   19.1550      +0.4889748      +0.4672569
P   8.26
From 139 observations 1975-2007, mean residual 0".7.  Nongravitational
     parameters A1 = +0.11, A2 = -0.0161.

・ 星図

・ 光度変化

        m1 = 13.8 + 5 logΔ + 5.0 log r

---------------------------------------------------------------------

軌道要素はMPCのEphemerides and Orbital Elementsに掲載されたものです。
星図は StellaNavigator Ver.2.0 for Windows (アストロアーツ 編著 / アスキー出版局刊) で作成したものです。
光度グラフはComet for Windowsで作成したものです。

---------------------------------------------------------------------

Copyright(C) Seiichi Yoshida (comet@aerith.net). All rights reserved.